Address 0x0499bea33347cb62d79a9c0b1eda01d8d329894c 1

Txn Hash Method
Block
From
To
Value [Txn Fee]
0x5041042a0a6872afdfd11425acfa1409bf40a925b6b3d39e15419fd16aea19c7Transmit185062652022-08-11 13:53:247 mins ago0x0499bea33347cb62d79a9c0b1eda01d8d329894cOUT 0x9450a29ef091b625e976ce66f2a5818e207919990 AVAX0.‍00412678827
0x96184c9601a341b15ffdb9540b8c4708f3377a1ab52c91a3f7304b1588c791e2Transmit185062362022-08-11 13:52:268 mins ago0x0499bea33347cb62d79a9c0b1eda01d8d329894cOUT 0xa0326d3ad91d7724380c096aa62ae1d5a8d260a80 AVAX0.‍00405068426.‍5
0x44725a7e5265d829257e48b837c7289a8ad8ba738163f446bc84b4e79b24bbbbTransmit185061452022-08-11 13:49:1811 mins ago0x0499bea33347cb62d79a9c0b1eda01d8d329894cOUT 0x9e107262620cfc6e0e2445df6c0ca0a9ad9ba6270 AVAX0.‍00405068426.‍5
0xd4972310f7241b62d01081e86fc547b4efa8bd8473a220b3f8395feaf22ca583Transmit185060002022-08-11 13:44:2516 mins ago0x0499bea33347cb62d79a9c0b1eda01d8d329894cOUT 0xd6d8cafd8c7842dfb447346957d22d5b7edd49ed0 AVAX0.‍0040608626.‍5
0xc1378a2df2c21f9d5c755194bbc7bb150dd424c73358fbedab6ac2c7a6a4c9f5Transmit185059402022-08-11 13:42:2418 mins ago0x0499bea33347cb62d79a9c0b1eda01d8d329894cOUT 0x9450a29ef091b625e976ce66f2a5818e207919990 AVAX0.‍00405068426.‍5
0x35214eb184ab9e07b879d1c3bff6cd1f9fa7850cdfc61870b27dad917fedc9dcTransmit185059122022-08-11 13:41:2919 mins ago0x0499bea33347cb62d79a9c0b1eda01d8d329894cOUT 0x154bab1fc1d87ff641eed0e9bc0f8a50d880d2b60 AVAX0.‍00405545426.‍5
0xc0a815e5fd358522121e8063794a345b69ab5f72aef025e6bd9004fad513b1a8Transmit185058572022-08-11 13:39:3921 mins ago0x0499bea33347cb62d79a9c0b1eda01d8d329894cOUT 0x92398caf00d65e9a63b5d50d1cbd53223137a4000 AVAX0.‍0040497326.‍5
0xd5bcc93b37611751ab4c877f669713510c49ee47957c59fd53fb00621c669d7fTransmit185058312022-08-11 13:38:4722 mins ago0x0499bea33347cb62d79a9c0b1eda01d8d329894cOUT 0xa01516869d8325fd18a77b307ca38cab1eb8fdeb0 AVAX0.‍00404718626.‍5
0x6199c0a08d448d29f9cd03fe833d990b917ab28fe827a6c7231aa4c201a99f84Transmit185057422022-08-11 13:35:4925 mins ago0x0499bea33347cb62d79a9c0b1eda01d8d329894cOUT 0x7c28e5fe04694c2bc2b8664492e6b82dfc4c2ed30 AVAX0.‍00412646427
0x779840732e19677f950fbe287a55269b0e376d327dc2d981872772b2892bcf01Transmit185056582022-08-11 13:32:5728 mins ago0x0499bea33347cb62d79a9c0b1eda01d8d329894cOUT 0xa0326d3ad91d7724380c096aa62ae1d5a8d260a80 AVAX0.‍00408777442927.‍009999999
0xf0bd0f700b3df23191d24469567057cb3c7ad92ef29dcf587cdedebb220f4cc7Transmit185056522022-08-11 13:32:4628 mins ago0x0499bea33347cb62d79a9c0b1eda01d8d329894cOUT 0x8dedeb1295e946d23b934c66964d7d402b6844500 AVAX0.‍00413845227
0xe31035def00dd3cb33c95dfbd8e189139768a6c6f074ca070f32528af0cec0ecTransmit185055362022-08-11 13:28:5432 mins ago0x0499bea33347cb62d79a9c0b1eda01d8d329894cOUT 0x3fff4d373c588f8975f3312e1ba6f70a39ce3f940 AVAX0.‍0040497326.‍5
0xc82ef926a5e4f0fb3c5b2c3bf52394e013c57928ef7b2a31d26f3bd9ad1e1eeaTransmit185055212022-08-11 13:28:2432 mins ago0x0499bea33347cb62d79a9c0b1eda01d8d329894cOUT 0x64f7ab24f5e2af4274f9ad200f8892bb83fb97760 AVAX0.‍004170182527.‍5
0x16109444c862c4e1669a4e69f6dcac7acf0a680f22bd1e6c02c994baa01e3325Transmit185055052022-08-11 13:27:5233 mins ago0x0499bea33347cb62d79a9c0b1eda01d8d329894cOUT 0xb3752dc7c1d71a1b381925ec5e6bbf2950519aa20 AVAX0.‍0040513226.‍5
0x50769e38e87e4802796165c7636e156c9720917e4130888f16c6b2109077cd74Transmit185054932022-08-11 13:27:2833 mins ago0x0499bea33347cb62d79a9c0b1eda01d8d329894cOUT 0x4bc3bebb7eb60155f8b38771d9926d9a23dad5b50 AVAX0.‍00404750426.‍5
0x420ca784af3ec2fc303711ce8629fdbdb5214e4d85558d459b3f850605decbacTransmit185054752022-08-11 13:26:5234 mins ago0x0499bea33347cb62d79a9c0b1eda01d8d329894cOUT 0xc27201f18fe55128de3aa54e9863b3b792941cf50 AVAX0.‍00405004826.‍5
0x990952c83e80f64a6cc217cf061a2aaf49b98d9668c2a74e286062591fc105c9Transmit185053902022-08-11 13:24:0237 mins ago0x0499bea33347cb62d79a9c0b1eda01d8d329894cOUT 0x0a58227e7d7a8175e4f5f8a0d32968d153b9ce590 AVAX0.‍000861170526.‍5
0x606afcfa25ac818a3ac19b6fffc2ce8df103925ec7e6674950f5b3db80e545b2Transmit185052862022-08-11 13:20:3040 mins ago0x0499bea33347cb62d79a9c0b1eda01d8d329894cOUT 0xaec3e48648c46b9eda4c8832e2f0a6b23289915d0 AVAX0.‍00405068426.‍5
0x41e7318aafe0b67a6d8e434162d7ab019a266f6d144976ce7d1ef819fe0a849fTransmit185052152022-08-11 13:18:0843 mins ago0x0499bea33347cb62d79a9c0b1eda01d8d329894cOUT 0x9c81461b6b821407e0a2968f9cec23e3c7063f840 AVAX0.‍00404750426.‍5
0x55cf00c12730b58a21e8233e012a9ce19e9abb9f07f563937eb16ff83493cb39Transmit185049862022-08-11 13:10:2750 mins ago0x0499bea33347cb62d79a9c0b1eda01d8d329894cOUT 0x64f7ab24f5e2af4274f9ad200f8892bb83fb97760 AVAX0.‍00397876326.‍5
0x1d7cfeafba61d664c0bb62db2c91ff30d4b42a4b3fd8379087aa35f5f802fef2Transmit185048632022-08-11 13:06:1754 mins ago0x0499bea33347cb62d79a9c0b1eda01d8d329894cOUT 0xb3752dc7c1d71a1b381925ec5e6bbf2950519aa20 AVAX0.‍00405322826.‍5
0xdaac4429c74a22e69b885a0e48cc2ab3cef8c5589bd4f10e58021e5baca38272Transmit185048102022-08-11 13:04:3156 mins ago0x0499bea33347cb62d79a9c0b1eda01d8d329894cOUT 0x0a58227e7d7a8175e4f5f8a0d32968d153b9ce590 AVAX0.‍00404686826.‍5
0x9eb28d8daa62348092be24ea27809c1cf064f7f813a1eb7535bf69cfff8eb685Transmit185047462022-08-11 13:02:2358 mins ago0x0499bea33347cb62d79a9c0b1eda01d8d329894cOUT 0x9450a29ef091b625e976ce66f2a5818e207919990 AVAX0.‍004010271526.‍5
0x772c12f8bbab5703578ae2fd59f1e98dc2ed641c9290a20c072130ab136cea90Transmit185044002022-08-11 12:50:481 hr 10 mins ago0x0499bea33347cb62d79a9c0b1eda01d8d329894cOUT 0x4cde5134f7da75a71e3e46614b8e220d86802ad50 AVAX0.‍0042058527.‍5
0xbea205b65869308197433f99d26c9cf2947dcc8de721a6a5ac27d192487c9f82Transmit185042782022-08-11 12:46:381 hr 14 mins ago0x0499bea33347cb62d79a9c0b1eda01d8d329894cOUT 0xefaa69f461e0aaf0be1798b01371daf14ac55ea80 AVAX0.‍00410097409526.‍822685919
[ Download CSV Export 
Parent Txn Hash Block From To Value
Loading

Contract Name:
0

Compiler Version
0

Optimization Enabled:
0

Other Settings:
-NA-
Block Transaction Gas Used Reward
Age Block Fee Address BC Fee Address Voting Power Jailed Incoming
Block Uncle Number Difficulty Gas Used Reward
Loading
Make sure to use the "Vote Down" button for any spammy posts, and the "Vote Up" for interesting conversations.